Location: Unspecified
(0.0000°N, 0.0000°E)
Time: 19:01:37
(UTC+02:00)

Daily predictions for brighter satellites

Satellite Brightness Start Highest point End
(mag) Time Altitude Azimuth Time Altitude Azimuth Time Altitude Azimuth
CZ-4 R/B 4.3 20:28:55 10° SW 20:30:53 14° WSW 20:32:51 10° WNW
Cosmos 2279 Rocket 4.5 20:25:28 10° N 20:31:37 68° W 20:37:48 10° S
GPS 2-15 Rocket1 3.6 20:27:30 10° SW 20:32:02 42° SSE 20:36:29 10° E
Cosmos 1763 Rocket 3.5 20:27:41 10° N 20:32:40 59° ENE 20:37:38 10° SSE
ATLAS 2AS CENTAUR R/B 4.2 20:33:27 10° ESE 20:34:33 10° ESE 20:35:40 10° ESE
IDEFIX/ARIANE 42P 2.8 20:29:34 10° S 20:34:49 77° WSW 20:40:05 10° NNW
Cosmos 1743 Rocket 4.2 20:39:31 10° SSE 20:43:36 34° E 20:47:39 10° NNE
Ariane H10-3 3.1 20:42:24 10° WNW 20:44:26 38° NNE 20:48:33 10° E
Cosmos 2219 3.6 20:42:40 10° S 20:48:05 43° ESE 20:53:27 10° NE
Cosmos 2221 3.3 20:45:38 10° NNE 20:49:28 31° E 20:53:20 10° SSE
MSX 3.9 20:44:46 10° SSE 20:50:33 88° WSW 20:56:18 10° NNW
Cosmos 1544 4.1 20:48:27 10° NNW 20:51:56 47° W 20:55:27 10° S
CZ-2C R/B 4.1 20:48:50 10° SSW 20:53:01 31° WSW 20:57:05 10° NW
In-Cosmos 22 4.3 20:47:33 10° S 20:53:09 55° E 20:58:46 10° NNE
Cosmos 1655 Rocket 3.9 20:47:51 10° S 20:54:06 80° E 21:00:18 10° N
Ariane H10 1.9 20:51:55 10° W 20:54:06 78° N 20:58:06 14° E
NOSS 3-1 (C) 3.3 20:52:41 10° SSW 20:58:24 83° WNW 21:04:07 10° NNE
ALOS 4.2 21:01:07 11° ENE 21:01:07 11° ENE 21:02:25 10° ENE
Cosmos 1484 Rocket 3.5 20:58:15 10° S 21:02:02 54° WSW 21:05:52 10° NNW
ARIANE 5 R/B 4.1 20:36:23 10° W 21:04:39 57° NNW 21:08:29 12° ENE
BREEZE-M DEB (TANK) 3.5 20:58:02 10° SSW 21:05:36 44° SE 21:07:49 17° ENE
Cosmos 1428 Rocket 4.4 21:01:51 10° S 21:08:01 67° E 21:14:13 10° NNE
SJ-6B 3.6 21:07:13 10° S 21:11:10 53° WSW 21:15:10 10° NNW
Spot 2 Rocket 3.4 21:07:56 10° SSE 21:12:58 72° ENE 21:17:59 10° N
Meteor 1-16 Rocket 4.2 21:10:05 10° N 21:15:54 79° E 21:21:34 10° S
Cosmos 2322 Rocket 3.5 21:12:11 10° NNE 21:16:07 20° ENE 21:16:26 19° E
Resurs 01 Rocket 1.6 21:17:29 14° SSE 21:21:19 89° WSW 21:25:45 10° NNW
Cosmos 1441 Rocket 3.6 21:18:05 10° SSW 21:21:54 62° W 21:25:37 10° N
Cosmos 1980 Rocket 2.1 21:16:46 10° NNW 21:22:28 82° ENE 21:26:30 20° SSE
Cosmos 371 Rocket 4.5 21:19:49 10° NNE 21:23:15 24° ENE 21:23:15 24° ENE
ARIANE 5 DEB (SYLDA) 2.8 21:22:06 10° WSW 21:23:31 34° SSW 21:23:31 34° SSW
ARIANE 5 R/B 1.8 21:22:38 10° WSW 21:24:12 47° SSW 21:24:12 47° SSW
Ariane H10 3.6 21:19:58 10° WNW 21:25:06 27° NNW 21:26:33 19° NNE
Cosmos 1697 Rocket 3.7 21:21:09 10° NNW 21:26:29 45° WSW 21:31:49 10° S
Cosmos 2228 Rocket 3.9 21:22:46 10° NNE 21:26:33 33° ENE 21:26:33 33° ENE
Cosmos 2266 Rocket 4.2 21:20:45 10° SSE 21:26:52 48° E 21:32:52 10° NNE
SL-16 R/B 3.3 21:25:08 10° NNE 21:29:33 25° ENE 21:29:33 25° ENE
Meteor 2-20 4.4 21:24:23 10° S 21:30:31 69° E 21:36:36 10° N
HJ-1C 4.3 21:31:46 24° SSW 21:33:28 46° W 21:36:43 10° NNW
Aurora 2 Rocket 2.1 21:31:43 10° WNW 21:36:35 74° NNE 21:36:59 67° ENE
Resurs 1-3 3.8 21:39:37 30° S 21:41:42 67° WSW 21:46:03 10° NNW
Centaur AC-146 2.0 21:33:05 10° WSW 21:43:17 80° NNW 21:43:52 61° NE
Cosmos 1674 2.7 21:44:39 75° NNW 21:44:39 75° NNW 21:48:10 10° N
Cosmos 1241 Rocket 4.3 21:38:20 10° S 21:44:26 61° ESE 21:50:30 10° NNE
PAYLOAD A 3.2 21:41:35 10° WSW 21:45:23 57° S 21:45:23 57° S
FUSE 3.9 21:41:23 10° WNW 21:46:46 76° SSW 21:47:38 61° SE
ATLAS CENTAUR R/B 1.9 21:45:34 10° NNW 21:48:27 45° N 21:48:27 45° N
Ariane H10+ 3.0 21:51:04 10° WNW 21:54:21 43° NNE 21:57:47 28° ENE
Cosmos 2298 Rocket 3.9 21:49:06 10° SSW 21:54:26 88° WNW 21:59:45 10° NNE
Cosmos 1553 Rocket 3.8 21:51:11 10° N 21:57:22 66° E 21:57:55 63° ESE
Cosmos 1417 Rocket 4.5 21:52:16 10° N 21:58:34 83° W 22:01:22 36° S
SWIFT 4.0 21:57:15 10° NW 22:00:06 26° N 22:00:06 26° N
Ariane H10 4.4 21:55:32 10° WNW 22:00:59 66° NNE 22:56:15 10° E
Ariane H10 4.4 21:55:32 10° WNW 22:00:59 66° NNE 22:56:14 10° E
Ariane H10 4.4 21:55:31 10° WNW 22:00:59 66° NNE 22:56:15 10° E
Ariane H10 4.4 21:55:31 10° WNW 22:01:00 66° NNE 22:56:15 10° E
GPS 2-15 Rocket1 4.2 22:11:39 10° W 22:15:04 42° WNW 22:15:04 42° WNW
BLOCK DM-SL R/B 3.4 22:11:36 10° W 22:16:37 36° W 22:16:37 36° W
Nadezhda 2 Rocket 4.4 22:18:36 80° NNW 22:18:36 80° NNW 22:24:21 10° N
ARIANE 5 R/B 3.7 22:10:13 10° W 22:18:37 47° NW 22:18:37 47° NW
ATLAS 2AS CENTAUR R/B 2.9 22:18:23 10° SSW 22:24:59 71° WNW 22:32:18 10° NNE
ALOS 4.3 22:39:40 26° WNW 22:39:40 26° WNW 22:42:12 10° NW
Ariane H10+ 4.5 22:43:56 10° W 22:44:20 12° W 22:44:20 12° W
Cosmos 2322 Rocket 4.1 22:55:08 10° NW 22:58:18 25° WNW 22:58:18 25° WNW
Centaur D AC-28 4.0 23:11:43 10° WNW 23:13:59 36° WNW 23:13:59 36° WNW
